SONATE-2
1 59112U 24043Q   26232.23633327  .00048117  00000-0  51881-3 0  9992
2 59112  97.5595  26.8294 0004723 327.1301  32.9662 15.63531255137885
GRBBeta
1 60237U 24128C   26232.58884417  .00003674  00000-0  25551-3 0  9996
2 60237  61.9918 350.2430 0031605 148.8612 211.4363 15.07032380115978
Curium One
1 60242U 24128H   26232.61026998  .00007082  00000-0  40316-3 0  9991
2 60242  61.9799 337.4521 0030624 144.2667 216.0487 15.13337364116201
ROBUSTA-3A
1 60243U 24128J   26232.61231369  .00007308  00000-0  42529-3 0  9991
2 60243  61.9880 340.2802 0032585 141.1725 219.1721 15.12456018116163
CatSat
1 60246U 24125J   26232.04314529  .00087539  00000-0  81480-3 0  9991
2 60246  97.2024  85.7463 0014666 302.7578  57.2269 15.66970898117360
HYPERVIEW-1G (RS66S)
1 61772U 24199AP  26230.11543498  .07890463  24672-5  93922-3 0  9997
2 61772  97.2456 114.2453 0006603 245.8477 114.2131 16.36574258144515
AO-123
1 61781U 24199AY  26232.59052392  .00007487  00000-0  21162-3 0  9999
2 61781  97.2904 100.6867 0015412  79.1727 281.1252 15.36506075143816
LASARsat
1 62391U 24247Q   26232.55788030  .00033566  00000-0  58340-3 0  9997
2 62391  44.9721 259.4164 0008410  21.4117 338.7124 15.50243612 93290
CroCube
1 62394U 24247T   26229.44050543  .00030135  00000-0  48363-3 0  9998
2 62394  44.9696 273.2151 0008904  10.0822 350.0248 15.52522684 92855
JINJUSat 1B
1 63210U 25052A   26232.64020772  .00015724  00000-0  45997-3 0  9995
2 63210  97.3906 129.5393 0002627 165.1189 195.0132 15.35343235 79986
NUSHSAT 1
1 63211U 25052B   26232.63491166  .00019808  00000-0  52604-3 0  9994
2 63211  97.3878 130.3449 0002234 160.3906 199.7426 15.38311428 80043
TEVEL2-4
1 63213U 25052D   26232.42940651  .00018328  00000-0  51309-3 0  9998
2 63213  97.3803 128.9952 0001328 166.6645 193.4635 15.36690198 79972
TEVEL2-5
1 63214U 25052E   26232.19733995  .00018478  00000-0  52088-3 0  9995
2 63214  97.3800 128.6905 0001198 168.0813 192.0460 15.36472525 79932
TEVEL2-6
1 63215U 25052F   26232.47164771  .00017852  00000-0  50378-3 0  9992
2 63215  97.3805 128.9505 0001118 163.9840 196.1440 15.36447217 79970
TEVEL2-1
1 63217U 25052H   26232.45946341  .00017177  00000-0  49438-3 0  9998
2 63217  97.3775 128.4821 0000595 199.7538 160.3683 15.35837269 79952
TEVEL2-3
1 63218U 25052J   26232.45145339  .00018114  00000-0  51997-3 0  9992
2 63218  97.3779 128.5057 0000506 179.5167 180.6077 15.35909048 79952
TEVEL2-2
1 63219U 25052K   26232.13353867  .00017770  00000-0  51130-3 0  9991
2 63219  97.3775 128.1591 0000540 204.5967 155.5251 15.35839076 79906
TEVEL2-9
1 63237U 25052AD  26232.65357397  .00015614  00000-0  48083-3 0  9998
2 63237  97.3837 127.9080 0003629 272.0768  88.0059 15.33715326 79900
TEVEL2-7
1 63238U 25052AE  26232.18580998  .00015915  00000-0  49559-3 0  9995
2 63238  97.3836 127.3273 0003654 278.0416  82.0411 15.33357557 79827
TEVEL2-8
1 63239U 25052AF  26232.12938172  .00016591  00000-0  51670-3 0  9999
2 63239  97.3844 127.2462 0003737 280.8557  79.2265 15.33343883 79816
SPIRONE
1 66657U 25274H   26232.23130106  .00001799  00000-0  17495-3 0  9996
2 66657  97.7467 160.6136 0012522 153.9205 206.2648 14.93765485 39789
K-HERO
1 66660U 25274L   26232.21844719  .00001865  00000-0  17924-3 0  9991
2 66660  97.7475 160.8086 0014325 159.0523 201.1287 14.94162787 39792
SNUGLITE-III DURI
1 66661U 25274M   26232.27202247  .00001446  00000-0  14012-3 0  9992
2 66661  97.7471 160.8823 0014934 160.3409 199.8390 14.94177712 39806
SAKHACUBE-CHOLBON
1 67290U 25313AU  26232.44607374  .00009463  00000-0  37111-3 0  9996
2 67290  97.3884 306.7100 0010612 124.9205 235.3032 15.25914358 35778
RS95S (QMR-KWT-2)
1 67291U 25313AV  26232.16866469  .00013861  00000-0  51234-3 0  9997
2 67291  97.3887 306.7678 0010258 124.5259 235.6950 15.27782014 35757
Ten-Koh2
1 68261U 25241B   26232.59686899  .00007428  00000-0  31038-3 0  9991
2 68261  51.6627  12.9093 0006258 355.1625   4.9291 15.24587949 24739
JACK-002
1 68417U 26067B   26230.84347183  .00005952  00000-0  27899-3 0  9997
2 68417  97.4619 188.7076 0003980  73.9847 286.1826 15.20060652 21462
DISCO 2
1 68431U 26067R   26232.45443461  .00007476  00000-0  35092-3 0  9995
2 68431  97.4651 190.2956 0004007 108.5236 251.6435 15.19919940 21708
HADES-SA (SpinnyONE)
1 68446U 26067AG  26232.33758135  .00016532  00000-0  74677-3 0  9990
2 68446  97.4445 189.7829 0005479 187.7793 172.3358 15.21026465 21671
PARUS-6U1
1 68456U 26067AS  26232.59777664  .00004622  00000-0  22993-3 0  9998
2 68456  97.4605 190.0170 0005134 179.1541 180.9702 15.18100919 21703
SAL-E
1 68458U 26067AU  26232.64388932  .00006696  00000-0  32715-3 0  9998
2 68458  97.4528 189.9692 0004993 188.8443 171.2704 15.18566033 21714
FSI-SAT 2
1 68792U 26088A   26232.35790023  .00004438  00000-0  29789-3 0  9997
2 68792  97.5150  20.0575 0013064 245.5183 114.4683 15.07261333 17952
OrigamiSat 2
1 68795U 26088D   26232.40069648  .00011543  00000-0  71234-3 0  9995
2 68795  97.5149  20.4611 0014167 212.8431 147.1919 15.09986887 17984
ARICA 2
1 68796U 26088E   26232.36507399  .00004574  00000-0  29379-3 0  9990
2 68796  97.5143  20.3394 0014745 214.1838 145.8443 15.08855327 17973
WASEDA-SAT-ZERO-II
1 68797U 26088F   26232.34765380  .00005996  00000-0  37965-3 0  9994
2 68797  97.5141  20.3583 0014538 213.1897 146.8421 15.09251714 17974
MANGARO-II-Piscus
1 68798U 26088G   26232.40338276  .00003100  00000-0  19852-3 0  9992
2 68798  97.5156  20.4538 0017959 217.0857 142.9132 15.09166121 17985
CO-128
1 69912U 26156AV  26232.63968006  .00001070  00000-0  11419-3 0  9997
2 69912  97.7510 132.3086 0003006  27.4799 332.6578 14.90883384  6602
MARINA
1 69920U 26156BD  26231.66620040  .00002042  00000-0  20647-3 0  9994
2 69920  97.7479 131.4142 0008056  22.2668 337.8899 14.92071863  6466
IO-86
1 40931U          26199.45381863  .00000000  00000-0  77536-4 0    07
2 40931   6.0006 322.6653 0012733 338.8432 273.6875 14.79294310    03
LILIUM-4                
1 71922C 26067AC  26089.50133053 -.00014632  00000+0 -74472-3 0    04
2 71922  97.4497  49.1617 0004341   5.9603 355.7042 15.16896692    16
